Weather History for Clinton, NC

Change the Weather History Date:

Monday, July 15, 2013

  Actual Average (KFAY) Record (KFAY)
Temperature  
Mean Temperature 81 °F 82 °F  
Max Temperature 90 °F 91 °F 99 °F (1954)
Min Temperature 72 °F 72 °F 59 °F (1940)
Degree Days  
Heating Degree Days 0 0  
Month to date heating degree days 0  
Since 1 June heating degree days 0  
Since 1 July heating degree days 0  
Cooling Degree Days 16 17  
Month to date cooling degree days 244  
Year to date cooling degree days 924  
Since 1 June cooling degree days 640  
Growing Degree Days 31 (Base 50)    
Moisture  
Dew Point 74 °F    
Average Humidity 81    
Maximum Humidity 100    
Minimum Humidity 53    
Precipitation  
Precipitation 0.00 in 0.21 in 1.20 in (1916)
Month to date precipitation 2.65  
Year to date precipitation 22.67  
Sea Level Pressure  
Sea Level Pressure 30.28 in    
Wind  
Wind Speed 1 mph (ENE)    
Max Wind Speed 7 mph    
Max Gust Speed -    
Visibility 9 miles    
Events      
T = Trace of Precipitation, MM = Missing Value Source: NWS Daily Summary

Daily Weather History Graph

Daily Weather History Graph

Search for Another Location

Airport:

Trip Planner

Search our weather history database for the weather conditions in past years. The results will help you decide how hot, cold, wet, or windy it might be!

Date:

Astronomy

Jul. 15, 2013 Rise Set
Actual Time 6:11 AM EDT 8:27 PM EDT
Civil Twilight 5:42 AM EDT 8:56 PM EDT
Nautical Twilight 5:06 AM EDT 9:31 PM EDT
Astronomical Twilight 4:27 AM EDT 10:10 PM EDT
Moon 1:09 PM EDT (7/15) No Moon Set
Length of Visible Light 15h 14m
Length of Day
14h 16m
Waxing Crescent, 45% of the Moon is Illuminated
Jul 15
Waxing Crescent
Jul 15
First Quarter
Jul 22
Full
Jul 29
Last Quarter
Aug 6
New

Hourly Weather History & Observations

Time (EDT) Temp. Heat Index Dew Point Humidity Pressure Visibility Wind Dir Wind Speed Gust Speed Precip Events Conditions
12:15 AM 73.6 °F - 73.4 °F 99% 30.30 in 10.0 mi Calm Calm - N/A   Clear
12:35 AM 73.6 °F - 73.4 °F 99% 30.29 in 10.0 mi Calm Calm - N/A   Clear
12:55 AM 73.0 °F - 73.0 °F 100% 30.29 in 10.0 mi Calm Calm - N/A   Clear
1:15 AM 73.2 °F - 73.0 °F 99% 30.29 in 10.0 mi Calm Calm - N/A   Clear
1:35 AM 73.4 °F - 73.4 °F 100% 30.29 in 10.0 mi Calm Calm - N/A   Clear
1:55 AM 73.2 °F - 72.9 °F 99% 30.29 in 10.0 mi Calm Calm - N/A   Clear
2:15 AM 72.5 °F - 72.5 °F 100% 30.29 in 7.0 mi Calm Calm - N/A   Clear
2:35 AM 72.5 °F - 72.5 °F 100% 30.28 in 10.0 mi Calm Calm - N/A   Clear
2:55 AM 72.5 °F - 72.5 °F 100% 30.28 in 10.0 mi Calm Calm - N/A   Clear
3:15 AM 72.7 °F - 72.7 °F 100% 30.28 in 10.0 mi Calm Calm - N/A   Clear
3:35 AM 72.7 °F - 72.7 °F 100% 30.28 in 10.0 mi Calm Calm - N/A   Clear
3:55 AM 72.7 °F - 72.7 °F 100% 30.28 in 10.0 mi Calm Calm - N/A   Clear
4:15 AM 72.7 °F - 72.7 °F 100% 30.28 in 7.0 mi Calm Calm - N/A   Clear
4:35 AM 72.9 °F - 72.9 °F 100% 30.28 in 7.0 mi Calm Calm - N/A   Clear
4:55 AM 73.0 °F - 73.0 °F 100% 30.28 in 7.0 mi Calm Calm - N/A   Clear
5:15 AM 73.0 °F - 73.0 °F 100% 30.28 in 7.0 mi NE 3.5 mph - N/A   Clear
5:35 AM 73.4 °F - 73.4 °F 100% 30.29 in 7.0 mi Calm Calm - N/A   Clear
5:55 AM 73.4 °F - 73.4 °F 100% 30.29 in 7.0 mi Calm Calm - N/A   Clear
6:15 AM 73.0 °F - 73.0 °F 100% 30.29 in 5.0 mi Calm Calm - N/A   Clear
6:35 AM 73.0 °F - 73.0 °F 100% 30.29 in 5.0 mi Calm Calm - N/A   Clear
6:55 AM 73.4 °F - 73.4 °F 100% 30.30 in 5.0 mi Calm Calm - N/A   Clear
7:15 AM 74.3 °F - 74.3 °F 100% 30.31 in 7.0 mi Calm Calm - N/A   Clear
7:35 AM 75.2 °F - 74.5 °F 98% 30.31 in 7.0 mi ENE 3.5 mph - N/A   Clear
7:55 AM 76.1 °F - 74.7 °F 95% 30.31 in 10.0 mi Calm Calm - N/A   Clear
8:15 AM 77.4 °F - 75.4 °F 94% 30.31 in 10.0 mi Calm Calm - N/A   Clear
8:35 AM 78.3 °F - 75.9 °F 92% 30.31 in 10.0 mi Calm Calm - N/A   Clear
8:55 AM 79.3 °F - 76.3 °F 90% 30.31 in 10.0 mi Calm Calm - N/A   Scattered Clouds
9:15 AM 80.2 °F 86.0 °F 76.3 °F 88% 30.31 in 10.0 mi ENE 3.5 mph - N/A   Mostly Cloudy
9:35 AM 80.6 °F 86.4 °F 75.6 °F 85% 30.31 in 10.0 mi East 3.5 mph - N/A   Mostly Cloudy
9:55 AM 82.0 °F 89.4 °F 76.1 °F 82% 30.31 in 10.0 mi Calm Calm - N/A   Mostly Cloudy
10:15 AM 82.2 °F 89.3 °F 75.4 °F 80% 30.31 in 10.0 mi East 3.5 mph - N/A   Mostly Cloudy
10:35 AM 82.4 °F 88.7 °F 74.3 °F 76% 30.31 in 10.0 mi Calm Calm - N/A   Scattered Clouds
10:55 AM 84.4 °F 92.0 °F 74.7 °F 72% 30.31 in 10.0 mi ENE 3.5 mph - N/A   Scattered Clouds
11:15 AM 84.7 °F 92.8 °F 74.7 °F 72% 30.31 in 10.0 mi ENE 3.5 mph - N/A   Scattered Clouds
11:35 AM 85.3 °F 93.4 °F 74.3 °F 70% 30.31 in 10.0 mi East 3.5 mph - N/A   Scattered Clouds
11:55 AM 85.8 °F 92.6 °F 73.0 °F 65% 30.31 in 10.0 mi East 4.6 mph - N/A   Scattered Clouds
12:15 PM 84.9 °F 91.8 °F 73.4 °F 68% 30.31 in 10.0 mi Calm Calm - N/A   Scattered Clouds
12:35 PM 85.6 °F 93.0 °F 73.6 °F 67% 30.31 in 10.0 mi Calm Calm - N/A   Scattered Clouds
12:55 PM 87.4 °F 95.3 °F 73.2 °F 63% 30.31 in 10.0 mi NE 3.5 mph - N/A   Scattered Clouds
1:15 PM 88.3 °F 95.9 °F 72.9 °F 60% 30.31 in 10.0 mi Calm Calm - N/A   Scattered Clouds
1:35 PM 87.1 °F 93.6 °F 72.3 °F 61% 30.30 in 10.0 mi ENE 4.6 mph - N/A   Scattered Clouds
1:55 PM 87.3 °F 94.5 °F 72.9 °F 62% 30.29 in 10.0 mi NNE 4.6 mph - N/A   Mostly Cloudy
2:15 PM 88.5 °F 94.4 °F 70.9 °F 56% 30.29 in 10.0 mi NNE 5.8 mph - N/A   Scattered Clouds
2:35 PM 88.9 °F 96.1 °F 72.1 °F 58% 30.28 in 10.0 mi NE 3.5 mph - N/A   Scattered Clouds
2:55 PM 89.8 °F 98.1 °F 73.0 °F 58% 30.28 in 10.0 mi East 5.8 mph - N/A   Scattered Clouds
3:15 PM 89.6 °F 96.6 °F 72.1 °F 56% 30.27 in 10.0 mi East 3.5 mph - N/A   Scattered Clouds
3:35 PM 90.0 °F 97.9 °F 72.7 °F 57% 30.27 in 10.0 mi East 6.9 mph - N/A   Scattered Clouds
3:55 PM 90.5 °F 99.2 °F 73.2 °F 57% 30.27 in 10.0 mi ENE 3.5 mph - N/A   Mostly Cloudy
4:15 PM 90.0 °F 95.9 °F 70.5 °F 53% 30.26 in 10.0 mi ESE 3.5 mph - N/A   Scattered Clouds
4:35 PM 90.0 °F 96.9 °F 71.6 °F 55% 30.26 in 10.0 mi NE 3.5 mph - N/A   Scattered Clouds
4:55 PM 89.8 °F 96.5 °F 71.4 °F 55% 30.26 in 10.0 mi ENE 3.5 mph - N/A   Clear
5:15 PM 89.8 °F 97.0 °F 72.3 °F 56% 30.26 in 10.0 mi NE 5.8 mph - N/A   Scattered Clouds
5:35 PM 90.5 °F 97.5 °F 72.0 °F 54% 30.25 in 10.0 mi East 4.6 mph - N/A   Scattered Clouds
5:55 PM 89.6 °F 96.6 °F 72.0 °F 56% 30.25 in 10.0 mi ENE 4.6 mph - N/A   Scattered Clouds
6:15 PM 87.3 °F 93.6 °F 72.0 °F 60% 30.25 in 10.0 mi Calm Calm - N/A   Scattered Clouds
6:35 PM 86.4 °F 93.8 °F 73.4 °F 65% 30.25 in 10.0 mi Calm Calm - N/A   Clear
6:55 PM 88.5 °F 95.3 °F 72.1 °F 58% 30.25 in 10.0 mi East 3.5 mph - N/A   Clear
7:15 PM 87.8 °F 95.2 °F 72.9 °F 61% 30.25 in 10.0 mi Calm Calm - N/A   Scattered Clouds
7:35 PM 86.2 °F 94.2 °F 73.9 °F 67% 30.25 in 10.0 mi Calm Calm - N/A   Scattered Clouds
7:55 PM 84.2 °F 91.6 °F 74.5 °F 72% 30.25 in 10.0 mi Calm Calm - N/A   Scattered Clouds
8:15 PM 81.7 °F 88.3 °F 75.4 °F 81% 30.26 in 10.0 mi Calm Calm - N/A   Scattered Clouds
8:35 PM 80.1 °F 85.1 °F 75.2 °F 85% 30.26 in 10.0 mi Calm Calm - N/A   Scattered Clouds
8:55 PM 79.3 °F - 76.1 °F 90% 30.26 in 10.0 mi Calm Calm - N/A   Scattered Clouds
9:15 PM 80.1 °F 84.8 °F 74.7 °F 83% 30.26 in 10.0 mi Calm Calm - N/A   Clear
9:35 PM 79.3 °F - 74.5 °F 85% 30.27 in 7.0 mi Calm Calm - N/A   Clear
9:55 PM 78.8 °F - 74.3 °F 86% 30.28 in 10.0 mi Calm Calm - N/A   Clear
10:15 PM 77.7 °F - 74.3 °F 89% 30.28 in 10.0 mi Calm Calm - N/A   Clear
10:35 PM 77.2 °F - 74.1 °F 90% 30.28 in 10.0 mi Calm Calm - N/A   Clear
10:55 PM 76.1 °F - 73.9 °F 93% 30.28 in 10.0 mi Calm Calm - N/A   Clear
11:15 PM 75.4 °F - 73.6 °F 94% 30.28 in 10.0 mi Calm Calm - N/A   Clear
11:35 PM 75.4 °F - 73.9 °F 95% 30.28 in 10.0 mi Calm Calm - N/A   Clear
11:55 PM 74.7 °F - 73.6 °F 96% 30.28 in 10.0 mi Calm Calm - N/A   Clear